Temp
-13 -13 -13 -13 -12 -11 -10 -9 -8 -6 -6 -6 -6 -6 -6 -6 -7 -8 -8 -8 -7 -8 -8 -7 -7 -7 -7 -7 -7 -7 -7 -8 -7 -7 -6 -5 -4 -3 -3 -4 -5 -5 -5 -5 -5 -5 -4 -6 -6 -7 -7 -7 -6 -6
-13 -13 -12 -11 -11 -11 -10 -9 -9 -7 -8 -5 -3 -3 -6 -7 -7 -7 -8 -8 -7 -8 -7 -7 -7 -7 -7 -7 -7 -8 -7 -8 -8 -7 -6 -5 -4 -4 -4 -4 -4 -5 -5 -5 -5 -6 -6 -6 -7 -7 -7 -7 -7 -7
-12 -12 -11 -11 -11 -10 -9 -9 -8 -7 -7 -4 -4 -5 -5 -5 -7 -7 -8 -8 -8 -7 -8 -7 -7 -7 -7 -7 -8 -8 -9 -8 -6 -6 -5 -5 -5 -4 -5 -4 -4 -5 -5 -5 -6 -5 -5 -6 -7 -8 -8 -8 -8 -8
-11 -11 -11 -11 -10 -10 -9 -8 -7 -8 -7 -6 -4 -4 -6 -5 -6 -8 -8 -8 -7 -7 -7 -8 -7 -7 -7 -8 -8 -8 -8 -6 -6 -6 -6 -6 -5 -5 -5 -5 -6 -6 -6 -6 -6 -6 -6 -7 -8 -9 -9 -9 -9 -8
-11 -11 -11 -10 -10 -10 -9 -8 -7 -8 -8 -8 -7 -7 -7 -8 -8 -8 -7 -7 -7 -7 -8 -8 -8 -8 -8 -9 -9 -8 -7 -6 -6 -6 -6 -6 -6 -6 -6 -6 -7 -7 -7 -8 -8 -7 -7 -8 -9 -9 -9 -9 -9 -9
-11 -11 -10 -10 -10 -9 -9 -8 -8 -8 -8 -8 -8 -8 -8 -8 -7 -7 -7 -8 -7 -8 -8 -9 -9 -9 -9 -10 -9 -7 -7 -7 -7 -7 -7 -7 -7 -7 -7 -7 -6 -6 -6 -7 -7 -7 -7 -8 -9 -9 -9 -9 -9 -9
-10 -10 -10 -10 -9 -9 -8 -8 -8 -8 -8 -8 -8 -8 -8 -8 -8 -8 -7 -8 -8 -8 -9 -10 -10 -10 -10 -8 -8 -7 -7 -8 -8 -8 -8 -8 -7 -7 -7 -7 -7 -7 -7 -7 -7 -7 -8 -8 -9 -9 -9 -9 -9 -9
-11 -10 -10 -10 -9 -9 -9 -8 -8 -8 -8 -8 -8 -8 -8 -8 -8 -9 -9 -9 -9 -9 -9 -10 -10 -10 -10 -9 -8 -8 -8 -8 -9 -8 -8 -8 -8 -8 -8 -8 -7 -7 -7 -7 -7 -7 -8 -9 -9 -9 -10 -9 -9 -9
-11 -11 -10 -10 -9 -10 -10 -10 -10 -10 -10 -10 -9 -9 -9 -10 -9 -9 -9 -8 -8 -8 -7 -8 -9 -10 -10 -10 -9 -9 -9 -9 -8 -8 -8 -8 -8 -8 -8 -8 -7 -7 -7 -7 -7 -8 -8 -9 -9 -10 -9 -9 -9 -9
-11 -11 -10 -11 -11 -12 -11 -10 -10 -10 -10 -10 -10 -10 -9 -8 -8 -8 -9 -8 -8 -7 -8 -8 -8 -8 -9 -9 -9 -9 -9 -9 -9 -8 -8 -8 -8 -8 -9 -8 -8 -8 -8 -8 -8 -8 -8 -9 -9 -9 -9 -9 -9 -9
-12 -13 -13 -12 -12 -11 -11 -10 -10 -10 -10 -10 -10 -9 -9 -9 -9 -9 -8 -8 -7 -9 -9 -9 -8 -8 -9 -9 -9 -9 -9 -8 -8 -8 -9 -8 -8 -8 -9 -8 -8 -8 -8 -8 -8 -8 -9 -9 -9 -9 -9 -9 -9 -9
-12 -12 -12 -12 -11 -11 -10 -10 -9 -9 -9 -8 -8 -9 -9 -8 -8 -7 -8 -8 -9 -9 -9 -9 -9 -9 -9 -9 -8 -9 -8 -8 -8 -9 -8 -8 -8 -8 -8 -8 -9 -9 -9 -8 -8 -9 -9 -9 -9 -9 -9 -9 -9 -9
-12 -11 -12 -12 -11 -10 -10 -10 -10 -9 -8 -9 -9 -8 -8 -8 -8 -8 -7 -8 -8 -8 -9 -9 -9 -9 -9 -8 -8 -8 -8 -9 -8 -9 -9 -8 -8 -8 -8 -8 -9 -8 -9 -9 -9 -9 -9 -9 -9 -9 -9 -10 -10 -10
-12 -12 -11 -11 -11 -10 -10 -10 -9 -8 -8 -8 -8 -8 -8 -8 -8 -8 -7 -6 -6 -7 -8 -9 -9 -8 -8 -7 -7 -8 -9 -8 -9 -9 -8 -8 -8 -8 -8 -8 -8 -8 -9 -9 -9 -9 -9 -9 -9 -9 -9 -10 -10 -10
-12 -12 -11 -11 -10 -10 -10 -9 -9 -8 -8 -8 -7 -7 -8 -8 -7 -7 -7 -6 -7 -8 -8 -8 -8 -8 -7 -7 -8 -8 -9 -9 -8 -8 -7 -7 -7 -8 -7 -8 -8 -9 -9 -9 -9 -9 -9 -9 -9 -10 -10 -10 -10 -10
-11 -11 -11 -11 -11 -10 -10 -10 -9 -9 -8 -8 -8 -10 -10 -8 -8 -8 -8 -8 -9 -9 -8 -8 -8 -8 -7 -7 -8 -8 -8 -8 -8 -8 -8 -7 -7 -7 -8 -8 -8 -9 -9 -9 -9 -9 -9 -10 -10 -10 -10 -10 -10 -11
-12 -11 -11 -11 -11 -10 -10 -10 -9 -8 -8 -9 -11 -11 -10 -9 -9 -10 -9 -9 -9 -9 -8 -7 -7 -8 -8 -9 -9 -9 -8 -8 -8 -8 -8 -7 -7 -8 -8 -8 -8 -9 -9 -9 -9 -10 -10 -10 -10 -10 -10 -11 -11 -11
-12 -11 -11 -11 -10 -10 -10 -9 -9 -9 -10 -12 -11 -10 -10 -9 -10 -11 -10 -9 -9 -8 -8 -7 -8 -9 -9 -9 -9 -8 -8 -8 -8 -8 -8 -8 -8 -8 -8 -8 -8 -9 -9 -9 -10 -10 -10 -10 -10 -10 -11 -11 -11 -11
-12 -12 -11 -11 -11 -10 -10 -9 -9 -11 -12 -11 -11 -11 -10 -9 -10 -10 -9 -9 -9 -8 -8 -8 -8 -9 -9 -8 -8 -8 -8 -8 -8 -8 -8 -8 -8 -8 -8 -8 -9 -9 -9 -10 -10 -10 -10 -10 -11 -11 -11 -11 -11 -11
-12 -12 -11 -11 -11 -10 -10 -11 -11 -12 -12 -12 -11 -11 -10 -10 -10 -10 -10 -9 -9 -9 -8 -9 -9 -9 -8 -8 -8 -8 -8 -8 -8 -8 -8 -8 -8 -8 -8 -9 -9 -9 -9 -10 -10 -10 -11 -11 -11 -11 -11 -12 -12 -12
-12 -11 -11 -11 -10 -9 -10 -11 -11 -12 -12 -11 -11 -11 -11 -11 -11 -10 -10 -9 -9 -9 -9 -9 -9 -9 -9 -9 -9 -9 -9 -9 -9 -9 -9 -9 -9 -9 -9 -9 -9 -9 -10 -10 -10 -10 -11 -11 -11 -11 -12 -13 -13 -13
-12 -12 -11 -11 -11 -10 -11 -11 -11 -11 -11 -11 -11 -11 -11 -11 -10 -10 -10 -10 -10 -10 -9 -9 -9 -9 -9 -9 -9 -9 -9 -9 -9 -9 -9 -9 -9 -9 -9 -9 -9 -10 -10 -10 -10 -11 -11 -11 -12 -13 -13 -13 -14 -14
-12 -12 -12 -11 -11 -11 -12 -11 -11 -11 -12 -12 -11 -11 -11 -11 -11 -10 -10 -10 -10 -10 -10 -10 -10 -9 -9 -9 -9 -9 -9 -9 -9 -9 -9 -9 -9 -9 -9 -10 -10 -10 -10 -10 -11 -11 -11 -12 -13 -13 -14 -14 -14 -15
-12 -11 -11 -12 -12 -13 -12 -12 -11 -12 -12 -12 -11 -11 -11 -11 -11 -10 -10 -10 -10 -10 -9 -9 -9 -9 -9 -9 -9 -9 -9 -9 -9 -9 -9 -9 -9 -9 -10 -10 -10 -10 -10 -11 -11 -12 -12 -13 -13 -14 -15 -15 -16 -16
-12 -13 -13 -13 -13 -13 -13 -12 -12 -12 -12 -12 -11 -11 -11 -11 -11 -10 -10 -10 -9 -9 -9 -9 -9 -9 -9 -9 -9 -9 -9 -9 -9 -10 -9 -9 -10 -10 -10 -10 -10 -11 -11 -12 -12 -13 -13 -14 -15 -15 -16 -17 -17 -17
-13 -13 -13 -13 -14 -13 -13 -13 -13 -13 -13 -12 -12 -12 -11 -11 -11 -11 -10 -10 -10 -9 -9 -9 -9 -9 -9 -9 -9 -9 -9 -9 -10 -10 -10 -10 -10 -10 -10 -11 -11 -12 -12 -13 -13 -13 -14 -15 -15 -16 -17 -17 -18 -18
-14 -14 -14 -13 -13 -13 -13 -13 -13 -13 -13 -13 -13 -12 -12 -12 -12 -11 -10 -10 -10 -10 -10 -10 -9 -9 -9 -9 -9 -9 -10 -10 -10 -10 -10 -10 -10 -10 -11 -11 -12 -12 -13 -14 -14 -14 -15 -15 -16 -17 -17 -18 -18 -18
-14 -14 -14 -14 -13 -13 -13 -13 -13 -13 -13 -13 -13 -12 -12 -12 -12 -12 -11 -11 -10 -10 -10 -10 -10 -10 -10 -10 -10 -10 -10 -10 -10 -10 -11 -11 -11 -11 -12 -12 -13 -13 -14 -14 -15 -15 -16 -17 -17 -17 -18 -18 -18 -18
-14 -14 -14 -14 -14 -14 -14 -14 -13 -13 -13 -13 -13 -13 -13 -13 -13 -12 -12 -12 -12 -11 -11 -11 -11 -11 -11 -11 -11 -11 -11 -11 -11 -11 -11 -12 -12 -12 -13 -13 -14 -14 -15 -15 -16 -17 -17 -18 -18 -18 -18 -18 -19 -19
-14 -14 -14 -14 -14 -14 -13 -14 -13 -13 -13 -13 -13 -13 -13 -13 -13 -13 -12 -12 -12 -12 -12 -11 -11 -11 -11 -11 -11 -11 -11 -11 -11 -12 -12 -13 -13 -13 -14 -14 -15 -15 -16 -17 -17 -18 -18 -18 -18 -18 -19 -19 -19 -20
-14 -14 -14 -14 -14 -13 -14 -14 -13 -13 -13 -13 -14 -13 -13 -12 -13 -12 -12 -12 -12 -11 -11 -11 -11 -11 -11 -12 -12 -12 -12 -12 -12 -13 -13 -14 -14 -14 -15 -15 -16 -17 -17 -18 -18 -18 -18 -18 -19 -19 -19 -19 -20 -20
-14 -14 -14 -13 -13 -13 -13 -13 -13 -13 -13 -13 -13 -13 -13 -13 -12 -11 -12 -12 -12 -12 -11 -11 -11 -11 -12 -12 -12 -13 -13 -13 -13 -14 -14 -15 -15 -16 -16 -16 -17 -17 -18 -18 -18 -18 -19 -19 -19 -19 -20 -20 -21 -21
-14 -14 -14 -14 -13 -13 -13 -13 -13 -13 -12 -12 -12 -12 -12 -12 -12 -11 -11 -11 -11 -11 -11 -12 -12 -12 -12 -13 -13 -13 -14 -14 -15 -15 -16 -16 -16 -17 -17 -17 -18 -19 -19 -18 -19 -19 -19 -19 -20 -20 -20 -21 -21 -22
Height
2786 2791 2795 2799 2802 2807 2809 2810 2810 2810 2813 2815 2818 2824 2834 2849 2867 2882 2900 2919 2934 2945 2955 2963 2964 2968 2975 2977 2980 2982 2994 2997 3002 3006 3009 3010 3009 3009 3009 3011 3011 3014 3018 3018 3018 3018 3016 3013 3014 3016 3015 3013 3013 3012
2777 2784 2789 2793 2797 2800 2801 2802 2799 2797 2790 2784 2784 2791 2804 2823 2846 2874 2886 2910 2934 2948 2947 2953 2957 2964 2971 2974 2977 2979 2984 2988 2995 3002 3005 3007 3006 3005 3007 3009 3010 3012 3012 3010 3012 3010 3010 3010 3010 3010 3010 3011 3010 3011
2775 2780 2786 2790 2794 2797 2799 2798 2797 2793 2779 2769 2768 2774 2785 2808 2836 2857 2880 2905 2922 2930 2941 2952 2954 2960 2965 2967 2972 2978 2984 2989 2992 2997 3001 3001 3001 3004 3004 3006 3007 3006 3006 3007 3008 3007 3007 3007 3006 3006 3006 3007 3009 3009
2774 2780 2786 2790 2794 2796 2798 2798 2799 2794 2785 2773 2768 2774 2786 2809 2834 2861 2880 2899 2913 2923 2938 2945 2950 2955 2959 2964 2970 2976 2983 2985 2990 2995 2995 2996 2999 3000 3002 3001 3002 3003 3003 3003 3004 3004 3004 3003 3003 3003 3004 3005 3006 3007
2776 2781 2785 2791 2796 2798 2801 2802 2804 2802 2800 2794 2792 2797 2807 2825 2847 2869 2889 2902 2918 2929 2934 2943 2950 2955 2959 2965 2970 2976 2981 2984 2988 2990 2991 2995 2995 2998 2997 2997 2999 2999 3001 3002 3002 3002 3002 3001 3001 3002 3003 3005 3006 3007
2778 2783 2788 2795 2799 2801 2804 2807 2809 2813 2815 2819 2821 2829 2839 2851 2863 2877 2897 2909 2917 2924 2932 2943 2950 2953 2959 2965 2971 2975 2978 2981 2985 2987 2990 2990 2991 2995 2995 2996 2995 2997 2998 2999 3000 3000 3000 2999 3001 3002 3003 3005 3006 3007
2783 2787 2794 2801 2806 2807 2809 2813 2817 2822 2827 2834 2840 2849 2859 2870 2883 2892 2896 2903 2914 2922 2930 2940 2948 2955 2960 2965 2969 2972 2975 2979 2983 2985 2987 2988 2990 2991 2992 2993 2993 2995 2995 2996 2997 2998 2998 2999 3000 3002 3004 3005 3006 3007
2793 2797 2803 2809 2813 2815 2817 2821 2827 2833 2839 2845 2852 2859 2869 2879 2888 2895 2904 2912 2921 2926 2932 2938 2947 2955 2960 2963 2967 2971 2974 2978 2980 2983 2985 2988 2988 2989 2990 2988 2991 2991 2993 2994 2995 2997 2997 2999 3000 3002 3004 3005 3006 3008
2803 2806 2810 2815 2820 2823 2827 2831 2836 2841 2848 2854 2861 2869 2877 2887 2895 2902 2912 2919 2924 2930 2933 2937 2942 2951 2957 2963 2967 2971 2975 2977 2979 2981 2985 2988 2986 2987 2986 2987 2987 2989 2991 2993 2995 2996 2997 2998 3000 3002 3004 3005 3006 3007
2810 2814 2819 2823 2828 2833 2837 2843 2847 2853 2858 2864 2871 2880 2887 2894 2902 2910 2919 2923 2928 2930 2934 2937 2941 2945 2954 2959 2965 2971 2974 2976 2978 2981 2981 2983 2983 2985 2984 2983 2985 2987 2989 2992 2994 2995 2997 2999 3000 3002 3003 3004 3005 3006
2821 2825 2829 2835 2839 2844 2848 2853 2859 2864 2869 2875 2880 2885 2892 2900 2907 2914 2919 2922 2927 2931 2936 2940 2944 2946 2957 2960 2963 2969 2972 2975 2978 2979 2981 2981 2982 2983 2982 2982 2984 2985 2987 2990 2992 2994 2995 2998 2999 3000 3001 3002 3003 3005
2831 2836 2841 2844 2849 2854 2858 2863 2868 2873 2877 2882 2885 2893 2900 2906 2911 2915 2918 2922 2926 2930 2936 2941 2945 2950 2954 2960 2963 2968 2970 2973 2975 2976 2978 2979 2979 2979 2980 2981 2983 2985 2987 2989 2991 2993 2994 2995 2997 2999 2999 3001 3002 3004
2840 2844 2849 2853 2857 2863 2867 2871 2876 2880 2885 2889 2894 2901 2904 2909 2912 2915 2918 2921 2923 2927 2932 2937 2943 2949 2955 2959 2962 2965 2968 2971 2972 2974 2976 2977 2977 2977 2979 2981 2983 2985 2987 2988 2990 2991 2992 2994 2995 2997 2998 3000 3001 3002
2849 2853 2857 2862 2866 2871 2875 2879 2883 2887 2892 2896 2900 2903 2906 2908 2910 2913 2917 2920 2923 2928 2934 2940 2944 2949 2954 2958 2961 2964 2968 2969 2972 2973 2975 2974 2975 2977 2979 2981 2983 2985 2986 2987 2989 2990 2991 2992 2994 2995 2996 2997 2998 2999
2858 2861 2864 2869 2873 2877 2881 2885 2890 2893 2896 2899 2903 2906 2908 2909 2911 2915 2920 2923 2927 2932 2937 2942 2947 2952 2955 2959 2961 2964 2966 2968 2970 2972 2971 2973 2975 2977 2978 2981 2982 2984 2985 2986 2987 2988 2990 2990 2992 2993 2994 2995 2996 2997
2867 2870 2873 2877 2880 2884 2887 2891 2894 2898 2900 2903 2906 2909 2910 2912 2915 2918 2922 2926 2932 2937 2942 2947 2950 2955 2957 2958 2961 2963 2966 2968 2968 2969 2970 2972 2974 2976 2979 2979 2981 2983 2984 2985 2986 2987 2987 2988 2990 2991 2992 2993 2993 2994
2875 2877 2879 2882 2886 2889 2892 2896 2899 2902 2905 2907 2911 2912 2913 2916 2918 2922 2926 2930 2936 2941 2944 2948 2951 2955 2958 2960 2962 2964 2965 2966 2967 2969 2970 2972 2975 2977 2978 2979 2981 2982 2982 2983 2984 2985 2985 2986 2988 2989 2989 2990 2990 2990
2881 2883 2885 2888 2891 2894 2897 2900 2903 2905 2908 2912 2915 2916 2918 2920 2923 2927 2931 2936 2940 2943 2947 2949 2952 2955 2958 2960 2962 2963 2964 2966 2968 2969 2971 2973 2975 2976 2977 2979 2980 2980 2981 2981 2982 2982 2983 2984 2985 2986 2986 2986 2987 2986
2885 2888 2891 2893 2896 2899 2901 2904 2907 2910 2915 2917 2919 2920 2922 2925 2929 2932 2936 2939 2943 2947 2949 2951 2954 2957 2958 2960 2962 2963 2965 2967 2968 2969 2972 2973 2974 2976 2977 2978 2978 2978 2979 2979 2979 2980 2980 2981 2982 2982 2983 2983 2982 2982
2891 2893 2895 2898 2901 2903 2905 2909 2910 2915 2920 2922 2924 2925 2927 2930 2934 2938 2941 2944 2947 2949 2951 2953 2955 2957 2959 2961 2963 2964 2965 2967 2968 2970 2972 2973 2974 2975 2976 2976 2976 2976 2976 2976 2976 2977 2978 2978 2978 2979 2979 2979 2977 2977
2895 2897 2900 2903 2905 2908 2910 2913 2915 2919 2922 2925 2927 2930 2933 2935 2938 2941 2944 2947 2949 2951 2953 2955 2957 2959 2961 2962 2963 2964 2965 2967 2968 2970 2971 2972 2973 2974 2974 2974 2974 2974 2974 2974 2974 2974 2974 2974 2975 2975 2975 2973 2972 2971
2899 2902 2904 2906 2910 2913 2915 2917 2919 2922 2925 2928 2932 2934 2936 2938 2941 2944 2947 2949 2951 2953 2954 2956 2958 2960 2962 2963 2964 2965 2966 2967 2968 2969 2970 2971 2972 2972 2972 2972 2972 2972 2971 2971 2971 2971 2971 2970 2971 2971 2969 2968 2967 2965
2906 2907 2907 2910 2914 2916 2920 2921 2923 2925 2929 2932 2934 2937 2938 2941 2943 2946 2948 2949 2951 2953 2954 2956 2958 2959 2961 2962 2963 2964 2965 2966 2967 2967 2968 2969 2969 2969 2969 2969 2969 2969 2968 2968 2968 2968 2967 2967 2965 2965 2963 2962 2961 2959
2911 2911 2912 2913 2915 2918 2922 2923 2926 2929 2931 2933 2936 2939 2941 2943 2945 2946 2948 2949 2950 2952 2954 2955 2957 2958 2960 2961 2962 2962 2963 2963 2964 2965 2966 2966 2967 2967 2966 2966 2965 2965 2964 2964 2964 2963 2962 2961 2960 2959 2958 2956 2953 2951
2916 2917 2919 2919 2921 2923 2924 2927 2929 2932 2933 2935 2938 2940 2942 2944 2945 2946 2947 2949 2949 2951 2953 2954 2956 2958 2959 2960 2960 2960 2960 2961 2962 2962 2963 2964 2964 2963 2963 2962 2961 2961 2960 2959 2959 2958 2957 2955 2954 2953 2951 2949 2948 2945
2919 2921 2923 2923 2925 2926 2927 2930 2932 2933 2934 2936 2938 2940 2942 2944 2945 2946 2946 2947 2949 2950 2952 2953 2955 2956 2957 2958 2958 2958 2958 2959 2959 2959 2960 2960 2960 2959 2959 2958 2957 2956 2955 2954 2953 2952 2951 2950 2948 2947 2945 2943 2942 2940
2924 2925 2926 2927 2927 2928 2930 2932 2933 2935 2937 2938 2939 2940 2941 2942 2943 2944 2945 2946 2948 2949 2951 2952 2953 2955 2956 2956 2956 2956 2956 2956 2956 2956 2956 2956 2955 2954 2954 2953 2952 2951 2950 2949 2948 2947 2945 2944 2943 2941 2940 2938 2936 2933
2927 2928 2929 2930 2930 2931 2932 2933 2935 2937 2938 2939 2940 2940 2941 2942 2943 2943 2944 2945 2946 2948 2949 2951 2952 2952 2953 2953 2953 2953 2953 2953 2953 2952 2952 2951 2951 2950 2949 2948 2947 2946 2945 2943 2942 2941 2940 2939 2938 2937 2935 2933 2931 2928
2928 2928 2930 2930 2931 2933 2934 2935 2936 2937 2938 2938 2939 2940 2941 2942 2942 2943 2943 2944 2946 2947 2948 2949 2950 2951 2951 2951 2951 2951 2950 2950 2949 2949 2948 2947 2946 2945 2944 2942 2941 2941 2940 2938 2937 2936 2936 2935 2934 2933 2931 2928 2925 2922
2928 2928 2929 2930 2931 2932 2933 2935 2935 2936 2936 2937 2938 2939 2939 2941 2941 2942 2943 2944 2945 2945 2946 2947 2948 2948 2948 2948 2948 2948 2947 2946 2945 2944 2943 2942 2941 2940 2939 2938 2937 2936 2935 2934 2934 2933 2933 2932 2930 2928 2926 2923 2920 2917
2926 2927 2928 2929 2930 2931 2933 2933 2934 2934 2934 2934 2935 2935 2935 2937 2938 2938 2939 2940 2941 2942 2942 2943 2943 2943 2943 2944 2943 2943 2942 2941 2940 2939 2938 2937 2936 2935 2934 2934 2933 2932 2931 2931 2931 2930 2929 2928 2926 2924 2921 2918 2915 2912
2926 2927 2928 2929 2930 2931 2931 2931 2931 2930 2931 2931 2931 2931 2931 2931 2931 2932 2934 2934 2934 2935 2936 2936 2936 2937 2937 2937 2937 2937 2936 2935 2934 2934 2933 2933 2932 2931 2930 2930 2929 2929 2929 2929 2928 2927 2925 2924 2921 2919 2916 2913 2910 2907
2926 2926 2927 2928 2928 2928 2928 2928 2927 2926 2925 2924 2924 2924 2924 2924 2923 2924 2926 2927 2928 2928 2928 2929 2928 2929 2929 2929 2930 2930 2930 2930 2929 2929 2929 2929 2928 2927 2927 2927 2927 2927 2927 2926 2925 2924 2922 2920 2917 2915 2912 2909 2906 2904
Wind_Speed
37 37 37 36 34 26 27 31 38 47 44 49 59 69 72 73 74 73 67 66 58 50 32 37 29 36 38 35 39 37 33 34 33 23 18 15 14 15 10 9 18 20 14 15 17 17 15 11 8 9 11 11 12 16
40 35 34 27 18 21 18 21 32 32 36 39 47 57 65 75 76 70 77 68 58 53 41 39 34 30 36 38 44 30 38 30 26 24 14 16 12 7 12 10 8 7 8 6 10 9 7 9 10 14 19 16 15 15
30 27 17 14 16 18 20 26 28 19 24 20 29 38 55 59 72 73 72 61 70 58 41 34 37 37 43 46 36 30 31 22 29 30 17 12 12 10 12 14 15 18 21 18 16 18 19 16 15 17 18 20 16 15
22 19 18 14 21 22 22 22 1 5 4 13 26 37 49 62 69 75 68 69 73 63 40 37 37 42 45 42 27 25 21 29 26 26 24 17 15 12 12 10 13 13 13 15 14 15 14 15 12 12 13 15 15 14
19 16 20 28 26 24 19 20 15 17 28 42 45 53 70 79 85 73 68 62 54 56 35 34 32 37 32 23 21 22 22 19 18 25 23 14 16 11 16 16 11 13 11 10 9 8 9 8 9 9 10 11 12 11
21 24 37 28 32 32 16 25 27 27 32 37 52 65 70 68 66 65 56 50 48 41 39 32 24 25 24 22 22 21 18 18 17 13 12 15 16 13 8 11 18 17 14 10 9 8 9 7 8 9 9 10 10 9
22 35 38 37 44 44 31 32 40 41 44 43 42 52 54 52 48 47 41 38 28 29 43 31 24 20 22 21 20 20 22 21 15 13 11 9 13 15 13 8 15 14 15 8 8 8 8 8 8 9 8 8 8 4
34 33 34 43 44 45 44 41 38 41 45 47 43 42 44 41 42 31 38 36 34 26 24 15 23 24 23 21 21 20 19 21 13 10 13 9 8 9 7 17 16 13 10 8 9 8 8 8 10 10 7 5 6 6
40 42 50 52 49 48 47 50 51 47 47 45 43 41 39 31 29 34 35 29 31 17 19 19 28 23 23 17 19 17 13 10 14 9 8 10 8 6 11 14 11 10 9 8 8 8 9 10 10 9 5 6 6 5
43 44 47 45 40 36 38 45 46 49 46 41 37 31 30 30 33 35 30 24 14 13 9 25 28 28 28 24 18 15 11 8 7 9 9 11 8 10 9 10 8 13 12 11 10 8 8 9 9 9 8 8 7 7
36 37 37 36 37 36 35 41 45 39 33 34 28 34 39 40 34 18 13 9 9 9 18 14 18 27 21 17 19 9 8 9 6 7 7 5 7 10 16 15 10 12 12 11 12 11 10 10 10 10 10 8 8 7
38 38 38 35 36 36 30 30 29 30 33 32 36 38 37 20 11 7 10 10 6 10 21 23 24 24 24 19 9 9 7 7 4 8 7 4 10 10 10 10 11 12 12 10 9 9 9 9 10 11 9 10 9 8
34 36 37 28 32 29 28 32 30 26 29 36 38 24 12 6 6 6 7 8 11 25 29 30 27 28 21 12 9 6 5 4 6 7 4 5 7 9 10 11 11 12 10 10 9 9 9 10 9 10 10 10 9 7
31 30 29 29 29 24 27 27 20 27 38 29 14 8 5 5 6 12 13 13 20 26 31 25 25 17 16 9 6 4 6 8 4 4 4 8 8 10 12 11 10 8 9 9 9 8 7 9 9 11 11 10 8 7
26 26 27 27 27 28 27 27 28 29 23 14 8 6 5 7 13 17 16 15 25 28 26 24 20 17 11 6 5 6 6 3 4 6 8 7 10 10 10 10 10 10 10 9 9 9 9 9 11 12 11 10 9 9
24 26 27 25 23 20 21 22 21 19 16 11 6 10 8 12 19 22 22 26 26 25 24 18 14 8 5 5 4 4 5 4 8 9 8 10 9 9 9 9 8 9 9 9 10 10 10 11 12 12 11 11 11 12
17 20 20 21 22 23 24 23 20 17 13 7 11 11 11 16 25 27 28 29 28 25 22 14 6 4 8 4 4 6 7 5 6 8 10 10 9 9 6 5 6 7 9 10 10 10 11 12 13 12 12 12 13 14
17 19 20 21 21 23 22 20 16 11 17 18 12 10 13 20 25 27 30 28 21 24 17 9 8 10 5 5 3 6 6 7 5 7 9 9 8 7 6 5 5 7 8 10 11 11 13 14 13 13 14 15 16 17
15 18 19 18 19 19 18 13 14 14 19 18 15 12 16 20 24 29 27 21 22 18 13 10 6 6 6 6 5 6 6 5 5 6 10 9 7 6 6 6 7 8 8 10 11 12 14 15 15 16 16 17 20 20
13 17 20 18 18 20 14 15 24 14 17 16 15 14 19 23 24 23 20 15 15 13 9 6 8 8 7 5 3 3 5 6 6 8 8 7 6 6 7 7 7 9 10 11 12 13 15 16 17 17 18 19 21 21
11 14 18 20 16 18 17 13 16 21 20 17 17 16 17 19 19 18 17 15 12 9 9 11 9 7 6 4 4 3 3 5 7 8 7 7 7 7 7 8 10 10 11 11 12 13 15 17 18 19 18 20 22 22
13 12 15 17 14 14 10 13 17 16 15 18 16 16 16 15 14 14 14 11 10 8 8 9 7 6 3 2 2 3 3 4 5 6 7 8 7 8 9 10 11 11 11 11 12 13 15 18 17 18 20 21 22 22
13 12 14 16 11 7 14 18 18 17 13 15 15 14 13 12 12 13 9 12 10 10 9 8 6 6 6 6 5 6 6 7 7 8 8 8 7 8 9 10 11 12 12 13 13 14 16 16 19 20 21 22 21 22
10 10 8 5 4 8 18 15 15 14 15 16 13 12 11 9 8 8 7 9 11 12 10 9 8 7 6 6 6 8 8 9 10 10 9 8 8 8 10 11 12 13 14 14 15 16 18 18 20 20 21 22 23 25
7 8 8 8 7 10 10 11 12 10 10 12 10 8 7 6 5 4 5 6 8 10 10 10 9 6 5 5 6 7 8 10 10 11 11 10 11 13 13 13 14 15 16 17 17 18 20 21 21 21 22 22 22 21
7 6 5 7 8 7 8 10 7 6 6 6 9 10 10 8 5 3 6 7 8 10 11 11 10 10 9 8 7 7 7 9 11 12 13 13 14 14 14 15 16 17 18 18 19 20 21 21 21 20 20 19 19 21
7 7 10 11 12 10 9 9 9 8 7 3 5 6 6 4 5 6 6 9 10 11 11 11 11 11 10 10 10 10 10 10 10 12 13 15 16 16 16 16 17 18 18 18 18 19 19 19 17 16 16 17 20 23
5 6 6 5 5 6 7 8 7 5 3 4 4 4 4 5 5 4 5 9 9 9 9 8 7 7 7 8 8 8 9 10 11 12 14 15 16 17 17 18 18 17 17 17 17 17 15 15 13 14 16 19 21 23
1 1 2 3 4 4 4 4 4 3 4 5 6 6 4 4 3 4 6 7 9 11 8 7 7 8 9 9 9 10 10 11 12 14 15 17 17 18 18 17 16 16 15 15 14 13 12 12 14 16 18 20 21 23
5 6 6 6 6 7 8 4 3 3 4 7 9 10 10 9 9 9 9 9 9 9 10 10 11 13 13 14 14 14 15 15 16 17 18 17 18 17 16 15 15 14 13 12 11 10 11 13 16 18 19 20 21 22
4 5 5 7 9 7 7 9 10 11 11 11 11 14 16 14 15 17 17 17 17 17 18 19 20 21 20 19 18 18 18 19 18 19 19 17 15 14 14 14 13 12 10 8 8 10 13 15 16 18 19 20 21 21
5 4 4 5 6 7 11 13 14 14 14 15 17 19 19 19 21 21 21 22 23 24 25 25 25 25 23 23 23 21 20 20 18 16 16 15 14 13 12 11 10 8 5 7 10 12 14 15 17 18 19 19 19 19
4 5 6 7 7 7 7 9 10 12 12 13 15 15 16 18 23 23 21 21 22 24 24 25 25 24 25 25 23 21 19 17 16 15 14 13 12 11 10 8 5 4 7 9 11 12 14 15 16 17 17 17 17 18
Wind_Direction
228 228 230 234 223 230 245 245 243 243 243 238 232 231 231 228 225 218 214 212 211 216 226 214 216 207 209 209 199 200 192 201 203 196 210 214 235 225 219 209 201 197 201 221 229 242 257 255 266 202 229 242 235 224
219 221 220 212 226 248 244 232 248 262 270 256 237 226 220 220 218 207 206 209 207 211 213 205 205 212 213 210 200 198 198 203 201 196 207 216 227 219 212 210 197 219 218 234 209 208 240 277 269 252 248 251 247 229
208 198 189 203 215 194 185 213 246 274 271 248 217 205 204 195 195 200 197 187 193 202 198 208 212 214 207 201 198 191 189 208 213 213 197 217 202 222 217 226 213 222 239 246 259 264 273 282 275 257 248 242 240 212
161 166 179 189 164 162 189 213 195 193 158 144 155 153 158 169 177 179 181 182 190 188 191 190 199 200 201 199 199 182 208 215 220 204 199 204 196 207 208 211 210 223 242 241 242 262 279 280 274 255 237 222 208 195
153 175 175 152 146 160 188 177 135 116 137 131 131 139 149 158 164 170 171 176 182 190 189 190 198 201 190 185 190 207 220 228 214 204 210 212 217 223 207 204 208 219 227 232 245 272 281 280 259 230 220 209 198 186
154 146 149 141 140 148 168 167 153 134 129 133 142 146 153 161 169 173 175 191 203 205 189 147 160 172 179 190 205 210 208 195 190 196 186 205 218 215 206 222 234 246 236 240 260 278 276 257 239 218 204 203 202 189
118 144 146 134 139 138 154 152 153 147 137 139 140 149 158 161 169 173 168 158 147 173 157 130 133 152 176 187 190 193 189 171 166 179 192 220 220 194 205 234 249 239 228 239 250 260 246 234 211 202 195 187 162 163
123 124 137 145 140 137 136 139 144 144 147 150 146 142 132 134 149 141 150 139 143 149 148 138 147 157 159 165 168 170 175 173 164 179 177 178 207 207 215 238 245 226 215 225 235 236 204 201 187 172 149 191 199 199
119 125 138 142 148 137 131 129 126 125 126 126 128 134 128 132 137 141 145 157 159 162 168 163 159 161 158 166 170 154 159 167 184 159 156 188 213 221 242 255 215 210 205 204 203 209 187 184 179 145 185 203 204 214
132 129 132 130 124 123 132 131 133 129 125 131 133 135 137 142 148 144 143 141 147 139 117 156 176 161 169 166 161 153 150 169 155 170 205 193 211 236 265 248 218 200 205 205 206 196 188 186 179 188 214 211 214 196
129 124 123 127 132 135 127 129 127 135 136 141 139 139 139 136 135 129 132 136 135 121 141 155 173 160 153 159 145 147 146 148 171 212 181 188 241 239 233 248 223 205 211 207 204 200 199 213 227 218 213 214 193 197
138 138 135 140 141 128 132 136 138 140 141 140 141 138 131 131 122 115 129 131 124 137 138 147 150 154 141 151 144 141 154 141 175 173 176 188 234 240 245 221 204 209 205 200 199 211 222 223 229 219 210 199 198 205
129 140 131 132 133 131 131 133 135 140 141 139 133 128 126 115 118 125 140 152 147 154 155 155 154 153 148 136 140 140 144 155 154 166 175 229 238 228 199 197 202 203 203 214 226 239 232 222 215 217 200 201 204 203
140 147 146 140 136 132 134 135 123 144 142 131 127 126 113 124 128 147 152 155 154 155 154 155 149 152 143 126 133 118 141 137 143 168 201 231 206 201 200 207 212 216 227 238 236 237 226 213 217 207 206 209 212 225
132 138 138 134 133 134 135 130 137 145 139 115 111 125 95 121 133 142 140 140 144 149 149 148 149 148 133 120 119 120 144 154 162 208 217 195 189 200 213 215 217 224 231 235 236 227 227 233 217 211 215 220 231 249
133 138 142 142 144 140 142 146 151 155 149 137 98 100 113 140 141 135 140 141 141 141 143 144 132 141 116 118 128 115 138 170 213 219 204 189 187 192 190 191 211 226 235 235 229 232 240 228 218 222 229 238 251 263
133 155 151 150 152 150 149 149 142 150 138 109 120 137 154 146 139 146 152 145 146 150 143 135 119 129 129 116 127 150 182 207 193 174 177 182 185 185 184 205 229 241 243 241 238 249 242 223 226 233 242 252 263 274
142 136 138 142 151 148 151 153 147 130 117 117 116 130 142 142 145 149 147 145 156 157 147 113 113 118 98 115 186 167 159 161 170 182 183 182 186 192 204 228 250 256 254 247 249 253 233 232 239 247 255 262 269 276
132 150 155 156 153 150 147 134 150 119 121 133 127 123 137 145 153 156 159 158 157 158 149 113 103 124 139 153 159 159 177 188 184 187 190 193 195 201 219 246 262 266 265 259 257 245 237 241 248 255 262 270 276 283
120 140 141 141 146 154 123 120 119 112 128 121 121 120 138 143 152 157 161 158 161 159 145 115 132 132 130 135 141 169 204 202 195 191 192 195 202 220 245 259 268 272 275 273 266 254 248 251 259 265 272 277 282 288
111 140 150 146 139 159 128 122 114 132 132 130 130 132 138 149 152 162 161 157 158 137 125 126 127 123 114 125 158 156 176 196 199 200 208 218 231 242 255 267 273 278 278 277 272 261 256 260 265 274 280 282 286 290
95 125 151 156 149 135 122 132 135 135 135 145 143 139 143 150 158 161 165 168 167 157 161 161 170 178 172 168 168 191 208 213 216 220 225 234 240 256 269 274 279 278 279 280 276 269 265 269 279 278 279 283 287 291
90 101 131 144 140 114 132 142 139 137 136 147 148 140 146 151 159 162 167 183 178 186 192 190 200 208 221 224 229 243 249 248 245 240 239 245 256 269 277 280 282 282 284 282 282 277 276 280 277 281 285 288 292 296
87 115 93 81 93 124 149 151 147 144 151 153 154 152 148 140 155 166 172 185 190 197 197 206 210 207 212 229 250 259 259 252 245 242 241 252 267 281 286 289 287 286 286 285 284 281 278 281 283 287 289 291 295 298
72 60 77 67 88 127 131 150 168 175 172 179 182 184 179 176 177 176 199 196 199 200 198 193 193 210 238 258 271 274 258 252 241 237 246 260 273 284 289 290 289 288 286 284 283 283 284 284 286 288 290 294 296 300
58 52 80 93 91 110 119 128 127 132 149 173 203 210 218 217 207 184 227 212 211 208 207 211 222 234 248 266 279 285 275 262 253 253 263 273 281 285 288 287 285 284 284 284 285 287 288 288 290 293 295 298 302 305
70 85 98 104 97 105 129 142 136 131 127 109 168 168 167 163 195 209 232 217 214 214 216 223 235 248 256 264 273 275 274 271 268 267 272 276 281 284 286 286 287 286 288 289 289 290 292 294 295 295 299 303 307 311
94 108 111 138 110 100 107 129 141 128 146 170 174 166 165 185 217 218 227 210 207 210 217 226 235 245 257 269 277 281 280 277 276 276 278 281 284 287 288 290 291 290 289 290 292 294 295 295 298 300 304 308 312 314
115 225 200 177 170 157 125 124 130 178 200 198 197 208 210 218 204 190 183 185 201 214 216 233 250 264 272 275 279 281 282 283 284 284 285 286 287 287 289 291 292 292 291 292 292 293 295 299 302 307 311 313 314 315
269 262 245 217 214 209 211 204 206 259 268 252 243 246 246 247 249 245 244 244 245 248 253 266 278 279 279 280 282 286 289 291 292 291 289 287 287 291 291 291 291 290 290 290 288 295 300 305 309 312 314 316 318 319
261 256 241 220 220 215 211 231 247 269 274 264 250 250 255 255 254 259 258 257 259 260 267 273 275 278 280 281 285 286 288 289 289 291 291 290 290 289 290 289 288 287 283 285 296 301 306 310 313 316 318 320 321 322
233 231 221 228 237 241 254 265 271 273 272 265 262 261 265 264 263 251 252 256 257 259 260 265 270 274 279 278 279 283 287 287 287 285 282 283 286 290 289 285 279 272 282 293 302 308 313 317 319 322 323 325 326 328
221 228 238 253 266 278 282 282 289 293 292 286 279 274 267 262 263 266 265 264 263 264 266 267 268 268 269 271 273 276 278 278 276 275 279 284 287 285 279 267 257 276 297 305 312 317 320 323 326 328 330 332 334 335